ONEWEB-0626 (55167 NORAD) Tracking and Keplerian Element Data

This shows tracking and keplerian element data for the satellite.

Feedback or suggestion? Click here.




ElementValue
Catalog55167
NameONEWEB-0626
Epoch Orbit130
Epoch Day13.91667824
Epoch Year2023
RAAN284.1413
Inclination86.5104
Eccentricity0.0012921
Argument of Perigee213.5842
Mean Anonmoly64.4126
Mean Motion14.91899636
Decay Rate-0.00047924
L11 55167U 23004AD 23013.91667824 -.00047924 00000+0 -47757-2 0 9994
L22 55167 86.5104 284.1413 0012921 213.5842 64.4126 14.91899636 1306



Live tracking and technical data element details for ONEWEB-0626 (NORAD 55167). ONEWEB-0626 can be tracked NOW for your location showing map with azimuth and elevation plus other details from your city location.







IsCatalogInMostPopularTable: catalog: 55167, numindb: 3
Update: records affected: 1



GetName: 55167 ONEWEB-0626

Hit Count: updated at: Tue, 07 Feb 2023 15:44:53 GMT